Change the Weather History Date:

Friday, April 1, 2011

  Actual Average Record
Temperature  
Mean Temperature 75 °F 74 °F  
Max Temperature 83 °F 82 °F 88 °F (2006)
Min Temperature 66 °F 65 °F 57 °F (1972)
Degree Days  
Heating Degree Days 0 0  
Month to date heating degree days 0 0  
Since 1 July heating degree days 0 0  
Cooling Degree Days 10 9  
Month to date cooling degree days 10 9  
Year to date cooling degree days 753 663  
Growing Degree Days 23 (Base 50)    
Moisture  
Dew Point 63 °F    
Average Humidity 69    
Maximum Humidity 84    
Minimum Humidity 54    
Precipitation  
Precipitation T in 0.08 in 2.06 in (1961)
Month to date precipitation T 0.08  
Year to date precipitation 7.87 7.29  
Snow  
Snow 0.00 in - - ()
Month to date snowfall 0.0  
Since 1 July snowfall 0.0  
Snow Depth 0.00 in    
Sea Level Pressure  
Sea Level Pressure 30.07 in    
Wind  
Wind Speed 14 mph (ENE)    
Max Wind Speed 29 mph    
Max Gust Speed 36 mph    
Visibility 10 miles    
Events Rain    
T = Trace of Precipitation, MM = Missing Value Source: NWS Daily Summary

Daily Weather History Graph

Daily Weather History Graph

Search for Another Location

Airport or City:

Trip Planner

Search our weather history database for the weather conditions in past years. The results will help you decide how hot, cold, wet, or windy it might be!

Date:

Astronomy

Apr. 01, 2011 Rise Set
Actual Time 6:19 AM HST 6:40 PM HST
Civil Twilight 5:56 AM HST 7:02 PM HST
Nautical Twilight 5:30 AM HST 7:28 PM HST
Astronomical Twilight 5:04 AM HST 7:54 PM HST
Moon 5:01 AM HST (4/1) 5:26 PM HST (4/1)
Length of Visible Light 13h 05m
Length of Day
12h 21m
Waning Crescent, 3% of the Moon is Illuminated
Apr 1
Waning Crescent
Apr 3
New
Apr 11
First Quarter
Apr 17
Full
Apr 24
Last Quarter

Hourly Weather History & Observations

Time (HST) Temp. Heat Index Dew Point Humidity Pressure Visibility Wind Dir Wind Speed Gust Speed Precip Events Conditions
12:54 AM 70.0 °F - 61.0 °F 73% 30.10 in 10.0 mi NE 10.4 mph - N/A   Partly Cloudy
1:54 AM 71.1 °F - 61.0 °F 70% 30.08 in 10.0 mi NE 15.0 mph 20.7 mph N/A   Mostly Cloudy
2:54 AM 69.1 °F - 62.1 °F 78% 30.05 in 10.0 mi East 8.1 mph - 0.00 in   Scattered Clouds
3:54 AM 69.1 °F - 63.0 °F 81% 30.04 in 10.0 mi East 8.1 mph - N/A   Mostly Cloudy
4:54 AM 66.0 °F - 61.0 °F 84% 30.05 in 10.0 mi ESE 3.5 mph - N/A   Mostly Cloudy
5:54 AM 70.0 °F - 64.0 °F 81% 30.06 in 10.0 mi NE 12.7 mph - 0.00 in Rain Light Rain
6:54 AM 70.0 °F - 64.0 °F 81% 30.08 in 10.0 mi NE 11.5 mph - 0.00 in   Mostly Cloudy
7:54 AM 73.0 °F - 66.0 °F 79% 30.09 in 10.0 mi NE 12.7 mph - 0.00 in   Scattered Clouds
8:54 AM 73.9 °F - 66.0 °F 76% 30.10 in 10.0 mi NE 21.9 mph 28.8 mph 0.00 in Rain Light Rain
9:54 AM 77.0 °F - 66.0 °F 69% 30.10 in 10.0 mi ENE 17.3 mph 25.3 mph 0.00 in   Scattered Clouds
10:54 AM 78.1 °F - 64.0 °F 62% 30.10 in 10.0 mi East 13.8 mph 23.0 mph N/A   Scattered Clouds
11:54 AM 80.1 °F 82.1 °F 66.0 °F 62% 30.09 in 10.0 mi NE 21.9 mph 29.9 mph N/A   Scattered Clouds
12:54 PM 79.0 °F - 63.0 °F 58% 30.06 in 10.0 mi ENE 18.4 mph 28.8 mph N/A   Scattered Clouds
1:54 PM 78.1 °F - 63.0 °F 60% 30.04 in 10.0 mi East 16.1 mph 26.5 mph N/A   Scattered Clouds
2:54 PM 80.1 °F 81.5 °F 63.0 °F 56% 30.02 in 10.0 mi ENE 20.7 mph 33.4 mph N/A   Scattered Clouds
3:54 PM 75.9 °F - 64.0 °F 67% 30.02 in 10.0 mi ENE 21.9 mph 34.5 mph N/A   Scattered Clouds
4:54 PM 75.9 °F - 63.0 °F 64% 30.03 in 10.0 mi East 19.6 mph 27.6 mph N/A   Mostly Cloudy
5:54 PM 73.9 °F - 62.1 °F 66% 30.04 in 10.0 mi ENE 18.4 mph 25.3 mph N/A   Partly Cloudy
6:54 PM 73.0 °F - 62.1 °F 68% 30.06 in 10.0 mi ENE 18.4 mph 28.8 mph N/A   Scattered Clouds
7:54 PM 72.0 °F - 61.0 °F 68% 30.08 in 10.0 mi ENE 15.0 mph 18.4 mph N/A   Scattered Clouds
8:54 PM 71.1 °F - 62.1 °F 73% 30.10 in 10.0 mi ENE 17.3 mph 24.2 mph N/A   Scattered Clouds
9:54 PM 73.0 °F - 59.0 °F 61% 30.12 in 10.0 mi NE 11.5 mph - N/A   Clear
10:54 PM 70.0 °F - 59.0 °F 68% 30.12 in 10.0 mi East 3.5 mph - N/A   Clear
11:54 PM 70.0 °F - 61.0 °F 73% 30.13 in 10.0 mi ENE 13.8 mph 18.4 mph N/A   Clear